Printer-friendly version

IAU Minor Planet Center

Minor Planet Center

MPEC 2001-S66: 2001 SG276

The following Minor Planet Electronic Circular may be linked-to from your own Web pages, but must not otherwise be redistributed electronically.


Read MPEC 2001-S65 Read MPEC 2001-S67


M.P.E.C. 2001-S66                                Issued 2001 Sept. 28, 20:55 UT

     The Minor Planet Electronic Circulars contain information on unusual
         minor planets and routine data on comets.  They are published
   on behalf of Commission 20 of the International Astronomical Union by the
          Minor Planet Center, Smithsonian Astrophysical Observatory,
                          Cambridge, MA 02138, U.S.A.

             Prepared using the Tamkin Foundation Computer Network

                              MPC@CFA.HARVARD.EDU
          URL http://cfa-www.harvard.edu/iau/mpc.html  ISSN 1523-6714

                                  2001 SG276

Observations:
     K01SR6G* C2001 09 26.38041 02 05 17.85 -18 44 02.6          19.1 R      699
     K01SR6G  C2001 09 26.39996 02 05 14.77 -18 43 53.6                      699
     K01SR6G  C2001 09 26.41954 02 05 11.70 -18 43 45.3                      699
     K01SR6G  C2001 09 26.43920 02 05 08.50 -18 43 36.0                      699
     K01SR6G  C2001 09 27.36070 02 02 46.90 -18 36 31.5          19.4 R      699
     K01SR6G  C2001 09 27.36847 02 02 45.71 -18 36 29.1                      699
     K01SR6G  C2001 09 27.37624 02 02 44.39 -18 36 24.6                      699
     K01SR6G  C2001 09 27.37701 02 02 44.22 -18 36 24.0          17.5 R      711
     K01SR6G  C2001 09 27.38402 02 02 43.20 -18 36 20.2                      699
     K01SR6G  C2001 09 27.39019 02 02 42.14 -18 36 17.9          17.4 R      711
     K01SR6G  C2001 09 27.40340 02 02 40.21 -18 36 11.3          17.4 R      711
     K01SR6G  C2001 09 28.32374 02 00 16.42 -18 28 40.7          18.1 R      711
     K01SR6G  C2001 09 28.33378 02 00 14.77 -18 28 35.7          18.0 R      711
     K01SR6G  C2001 09 28.34347 02 00 13.12 -18 28 31.0          17.8 R      711

Observer details:
699 Lowell Observatory-LONEOS.  Observer B. A. Skiff.  0.59-m
    LONEOS Schmidt + CCD.
711 McDonald Observatory.  Observer J. G. Ries.  0.76-m reflector + CCD.

Orbital elements:
2001 SG276
Epoch 2001 Sept. 8.0 TT = JDT 2452160.5                 Spahr
M 107.78578              (2000.0)            P               Q
n   0.53947000     Peri.  196.69091     -0.68760246     +0.66641486
a   1.4944837      Node    31.78479     -0.58785396     -0.27791993
e   0.2426040      Incl.   33.17951     -0.42618140     -0.69184662
P   1.83           H   16.8           G   0.15
From 14 observations 2001 Sept. 26-28.

Ephemeris:
2001 SG276               a,e,i = 1.49, 0.24, 33                  q = 1.1319
Date    TT    R. A. (2000) Decl.     Delta      r     Elong.  Phase     V
2001 09 18    02 24.79   -19 30.5    0.824    1.700   136.5    24.0    18.7
2001 09 28    02 01.12   -18 31.2    0.793    1.724   147.4    18.2    18.4
2001 10 08    01 33.63   -16 43.0    0.787    1.746   155.5    13.7    18.3
2001 10 18    01 06.10   -14 05.1    0.810    1.766   155.5    13.5    18.4
2001 10 28    00 42.38   -10 52.4    0.863    1.784   147.8    17.3    18.6
2001 11 07    00 24.64   -07 26.5    0.943    1.801   137.2    21.9    19.0
2001 11 17    00 13.28   -04 03.3    1.043    1.815   126.6    25.9    19.4
2001 11 27    00 07.70   -00 49.8    1.157    1.827   116.6    28.9    19.7
2001 12 07    00 06.89   +02 12.7    1.282    1.837   107.5    30.8    20.0
2001 12 17    00 09.90   +05 05.6    1.411    1.845    99.2    31.8    20.2
2001 12 27    00 15.95   +07 51.4    1.543    1.851    91.5    32.1    20.4
2002 01 06    00 24.44   +10 31.9    1.672    1.855    84.4    31.8    20.6

Timothy B. Spahr             (C) Copyright 2001 MPC           M.P.E.C. 2001-S66

Read MPEC 2001-S65 Read MPEC 2001-S67


Our Web policy. Index to the CBAT/MPC/ICQ pages.


Valid HTML 4.01!